Location: Barcelona
(41.3830°N, 2.1830°E)
Time: 20:41:02
(UTC+02:00)

ISS - Pass Details

Date: 23 September 2020
Orbit: 419 x 421 km, 51.6° (Epoch: 30 September)

Event Time Altitude Azimuth Distance (km) Brightness Sun altitude
Rises 20:52:19 0° 274° (W) 2,363 2.0 -13.2°
Reaches altitude 10° 20:54:47 10° 292° (WNW) 1,500 0.4 -13.6°
Maximum altitude 20:57:23 20° 343° (NNW) 1,027 -1.4 -14.1°
Drops below altitude 10° 20:59:59 10° 33° (NNE) 1,503 -1.2 -14.6°
Enters shadow 21:00:23 - 37° (NE) 1,632 -1.0 -14.7°
